Location: Unspecified
(43.4354°N, 0.0000°E)
Time: 09:46:11
(UTC+00:00)

Courier 1B - Pass Details

Date: 19 June 2019
Orbit: 962 x 1209 km, 28.3° (Epoch: 24 August)

Event Time Altitude Azimuth Distance (km) Brightness Sun altitude
Rises 23:54:50 0° 255° (WSW) 4,086 10.6 -23.1°
Enters shadow 23:58:00 - 242° (WSW) 3,279 10.0 -23.1°
Reaches altitude 10° 23:58:39 10° 238° (WSW) 3,136 - -23.1°
Maximum altitude 00:03:41 19° 198° (SSW) 2,547 - -23.1°
Drops below altitude 10° 00:08:43 10° 157° (SSE) 3,125 - -23.1°
Sets 00:12:32 0° 140° (SE) 4,065 - -23.1°
